This is the latest recevied weather packets stored in our database for station/object DL1GHN-6. If no packets are shown the sender has not sent any weather packets the latest 10 day(s).
| Time | Temp. | Humidity | Pressure | Rain* | Wind** | Luminosity | Snow |
|---|---|---|---|---|---|---|---|
| 1777656623 | 22.22° C | 30% | 1021.1 hPa | 0 mm | - | 19 W/m² | - |
| 1777656323 | 22.78° C | 30% | 1021.1 hPa | 0 mm | - | 19 W/m² | - |
| 1777656023 | 22.78° C | 32% | 1021.1 hPa | 0 mm | - | 21 W/m² | - |
| 1777655725 | 23.33° C | 31% | 1021.1 hPa | 0 mm | - | 21 W/m² | - |
| 1777655424 | 23.33° C | 29% | 1021 hPa | 0 mm | - | 21 W/m² | - |
| 1777655125 | 23.33° C | 30% | 1021.1 hPa | 0 mm | - | 23 W/m² | - |
| 1777654824 | 23.33° C | 28% | 1021.1 hPa | 0 mm | - | 23 W/m² | - |
| 1777654525 | 23.33° C | 28% | 1021.1 hPa | 0 mm | - | 23 W/m² | - |
| 1777654225 | 23.89° C | 29% | 1021.2 hPa | 0 mm | - | 25 W/m² | - |
| 1777653925 | 23.89° C | 29% | 1021.2 hPa | 0 mm | - | 25 W/m² | - |
| 1777653625 | 23.89° C | 28% | 1021.1 hPa | 0 mm | - | 26 W/m² | - |
| 1777653324 | 24.44° C | 28% | 1021.2 hPa | 0 mm | - | 28 W/m² | - |
| 1777653025 | 24.44° C | 30% | 1021.2 hPa | 0 mm | - | 28 W/m² | - |
| 1777652724 | 24.44° C | 28% | 1021.2 hPa | 0 mm | - | 30 W/m² | - |
| 1777652423 | 24.44° C | 29% | 1021.2 hPa | 0 mm | - | 32 W/m² | - |
| 1777652123 | 25° C | 28% | 1021.2 hPa | 0 mm | - | 306 W/m² | - |
| 1777651823 | 25.56° C | 29% | 1021.3 hPa | 0 mm | - | 302 W/m² | - |
| 1777651524 | 25° C | 27% | 1021.3 hPa | 0 mm | - | 304 W/m² | - |
| 1777651224 | 25° C | 29% | 1021.2 hPa | 0 mm | - | 146 W/m² | - |
| 1777650923 | 25° C | 28% | 1021.3 hPa | 0 mm | - | 250 W/m² | - |
| 1777650624 | 24.44° C | 28% | 1021.3 hPa | 0 mm | - | 42 W/m² | - |
| 1777650325 | 25° C | 27% | 1021.4 hPa | 0 mm | - | 40 W/m² | - |
| 1777650024 | 25.56° C | 28% | 1021.4 hPa | 0 mm | - | 353 W/m² | - |
| 1777649724 | 25.56° C | 27% | 1021.5 hPa | 0 mm | - | 425 W/m² | - |
| 1777649424 | 25.56° C | 30% | 1021.5 hPa | 0 mm | - | 438 W/m² | - |
* Rain latest hour (hover to see other rain measurements)
** Current wind speed in m/s (hover to see current wind gust speed)